STARLINK-36761

Last updated on Mon Mar 23 2026 00:02:07 GMT+0000 (Coordinated Universal Time)

1 67867U 26034T 26080.92023704 .00455923 00000+0 21793-2 0 9993 2 67867 53.1581 149.9104 0001326 56.5147 303.6003 15.81016152 5872
UTC large
Height (km)
Speed (km/s)
/
Latitude / Longitude
Inclination (degrees)
Orbital Period (minutes)
Azimuth
Elevation
Range (km)
Doppler Factor

Next 0 passes for location: London (51.5072 / 0.1276)

Sorry there are no passes over London.